[[{"header":{"parameterUnit":"m.s-1","parameterCategory":1,"la1":30.2991,"la2":30.254,"lo1":-89.0895,"lo2":-89.0444,"dy":0.0017,"dx":0.0017,"nx":28,"ny":28,"refTime":"2025-07-28T21:00:00:Z","depth":0,"parameterNumber":2,"parameterNumberName":"U-component_of_WINDS"},"data":[0,0,0,0,0,0,0,0,0,0,0,0,0,0,0,0,0,0,0,0,0,0,0,0,0,0,0,0,0,0,0,0,0,0,0,0,0,0,0,0,0,0,0,0,0,0,0,0,0,0,0,0,0,0,0,0,0,0,2.8107,2.8108,0,2.8248,2.825,2.8251,2.8213,2.821,2.8207,2.8205,2.8357,2.8364,2.8371,0,0,0,0,0,0,0,0,0,0,0,0,0,2.7811,2.7817,2.8106,2.8108,2.811,2.8248,2.825,2.8252,2.8214,2.821,2.8207,2.8203,2.8355,2.8363,2.8371,0,0,0,0,0,0,0,0,0,0,0,0,0,2.7945,2.7819,2.8106,2.8107,2.8109,2.8248,2.825,2.8252,2.8214,2.821,2.8206,2.8202,2.8353,2.8362,2.8372,2.8521,0,0,2.8403,2.8408,0,0,0,0,0,0,0,0,2.7937,2.7956,2.8105,2.8108,2.8109,2.8208,2.8202,2.8343,2.8215,2.8175,2.8205,2.82,2.8312,2.8325,2.8361,2.8528,2.8535,2.8404,2.841,2.8415,2.8417,0,0,0,0,0,0,0,2.7928,2.795,2.8163,2.8108,2.811,2.8104,2.8118,2.8228,2.8266,2.8178,2.8175,2.8192,2.8312,2.8352,2.8365,2.8537,2.8404,2.8413,2.8419,2.8423,2.8834,2.8839,0,0,0,0,0,0,2.7916,2.7942,2.8158,2.8167,2.8011,2.8112,2.8128,2.8181,2.8264,2.8273,2.8196,2.819,2.8336,2.8353,2.837,2.855,2.8415,2.8424,2.843,2.883,2.8835,2.8841,0,0,0,0,0,0,2.791,2.7936,2.8153,2.8054,2.8081,2.8122,2.8182,2.8186,2.8225,2.8278,2.8285,2.8228,2.8334,2.8356,2.8483,2.8554,2.8429,2.8438,2.8824,2.8831,2.8838,2.891,0,0,0,0,0,0,2.7902,2.7934,2.7989,2.8055,2.8086,2.8261,2.8186,2.8192,2.8242,2.8236,2.8311,2.8319,2.8332,2.8468,2.8493,2.8566,2.8446,2.8818,2.8827,2.8836,2.8901,2.8919,2.8934,0,0,0,0,0,2.7891,2.8005,2.7992,2.8018,2.8155,2.8265,2.8283,2.8294,2.8248,2.8305,2.8339,2.8317,2.8543,2.8482,2.851,2.8586,2.8813,2.8825,2.8835,2.8894,2.8915,2.8933,0,0,0,0,0,0,2.7947,2.8013,2.8,2.8137,2.8196,2.8259,2.833,2.8316,2.8391,2.8382,2.8394,2.8412,2.8542,2.8577,2.8508,2.8735,2.8672,2.8689,2.8707,2.8728,2.8743,2.8732,2.8454,0,0,0,0,0,2.7975,2.8057,2.8111,2.8228,2.8258,2.8289,2.8338,2.834,2.8403,2.8428,2.8471,2.8535,2.862,2.8676,2.8757,2.8907,2.8923,2.8974,2.899,2.9003,2.9017,2.91,2.9123,2.8877,2.8877,2.8876,0,0,2.8035,2.8081,2.8132,2.824,2.8286,2.8372,2.831,2.8404,2.8469,2.8443,2.8565,2.86,2.8672,2.8811,2.8875,2.8844,2.9089,2.9017,2.9026,2.9034,2.9114,2.9137,2.9157,2.8884,2.8883,2.8882,0,0,2.8187,2.823,2.8331,2.8378,2.8447,2.8468,2.8493,2.8558,2.8579,2.8702,2.8684,2.8764,2.891,2.8962,2.9008,2.9181,2.9164,2.9208,2.9292,2.9373,2.9392,2.9409,2.9472,2.9494,2.9222,2.9223,2.9223,0,2.8253,2.8379,2.8386,2.8482,2.8531,2.8509,2.8614,2.866,2.8754,2.8789,2.8753,2.8937,2.8984,2.9135,2.9178,2.9216,2.9246,2.9199,2.9388,2.9406,2.9422,2.9482,2.9505,2.9227,2.9227,2.9226,2.9226,0,2.8457,2.8546,2.862,2.8708,2.8766,2.8866,2.889,2.8949,2.8947,2.8973,2.9099,2.9155,2.9247,2.9284,2.9284,2.9437,2.9415,2.9384,2.932,2.945,2.9506,2.9529,2.9234,2.9233,2.9231,2.923,0,0,2.8647,2.8738,2.8765,2.8805,2.8881,2.8951,2.9052,2.914,2.919,2.9256,2.9341,2.9466,2.9438,2.949,2.9497,2.9567,2.9702,2.9528,2.9529,2.9558,2.9874,2.9897,2.9923,2.9692,2.9696,2.97,2.9868,0,2.8805,2.8978,2.8988,2.9146,2.9229,2.9211,2.9299,2.9356,2.9383,2.946,2.9491,2.9579,2.9534,2.9566,2.9635,2.9671,2.9766,2.9659,2.9773,2.9777,2.9754,2.9952,2.9976,3.0132,2.989,2.9894,2.9897,0,2.9013,2.9083,2.9248,2.9313,2.9348,2.9426,2.9508,2.9581,2.9647,2.9662,2.972,2.9717,2.9823,2.9756,2.9903,2.983,2.9878,2.9903,2.991,2.992,2.9844,2.9968,3.0182,3.0205,2.9931,2.9929,2.9926,0,2.9134,2.9271,2.9387,2.9422,2.9501,2.9556,2.9592,2.9653,2.9706,2.978,2.9814,2.99,2.9947,3.0015,3.0036,2.9985,3.0183,3.0117,3.02,3.0199,3.0241,3.0238,3.0466,3.0273,3.0273,3.0272,3.0272,0,2.931,2.9412,2.9443,2.9514,2.9629,2.9642,2.9756,2.9789,2.9844,2.9924,2.9915,2.999,3.0014,3.0095,3.0113,3.0232,3.0254,3.027,3.0274,3.027,3.0268,3.0301,3.0291,3.0279,3.0277,3.0276,3.0275,0,2.9464,2.9489,2.9615,2.9679,2.9697,2.9779,2.9835,2.9906,2.9931,3.0033,3.0057,3.0099,3.0194,3.0222,3.0336,3.0349,3.0488,3.0483,3.0465,3.0465,3.0545,3.0537,3.0802,3.0837,3.0622,3.0624,3.0626,0,2.9574,2.9652,2.9723,2.9775,2.9812,2.9896,2.9949,2.9966,3.0023,3.0104,3.0166,3.0259,3.0333,3.0486,3.0528,3.0617,3.0612,3.0699,3.0626,3.062,3.0614,3.0608,3.0616,3.0713,3.0715,3.0717,3.0718,0,2.9766,2.9775,2.985,2.9932,2.9995,3.006,3.0123,3.0167,3.0193,3.0257,3.0353,3.0411,3.0527,3.062,3.071,3.075,3.074,3.0741,3.0765,3.0762,3.0748,3.0757,3.0502,3.0735,3.0733,3.0732,3.0731,3.073,2.9901,2.997,3.0031,3.0116,3.0165,3.0224,3.0293,3.0328,3.0407,3.0501,3.0507,3.0611,3.0677,3.0796,3.0841,3.0924,3.0899,3.0933,3.0942,3.095,3.0956,3.0736,3.0941,3.094,3.094,3.0939,3.0939,0,3.0092,3.0131,3.0209,3.0297,3.0365,3.0347,3.0416,3.0475,3.0565,3.0627,3.0701,3.0811,3.0902,3.0952,3.1043,3.11,3.1098,3.1123,3.1119,3.1128,3.0973,3.0943,3.1124,3.1124,3.1123,3.1123,3.1123,3.1123,3.02,3.0314,3.0331,3.0471,3.051,3.0609,3.065,3.0706,3.0755,3.0878,3.0952,3.0983,3.1041,3.1136,3.1219,3.1232,3.1266,3.1294,3.1304,3.1158,3.1139,3.1121,3.1093,3.1302,3.1302,3.1452,3.1454,3.1455]},{"header":{"parameterUnit":"m.s-1","parameterCategory":1,"la1":30.2991,"la2":30.254,"lo1":-89.0895,"lo2":-89.0444,"dy":0.0017,"dx":0.0017,"nx":28,"ny":28,"refTime":"2025-07-28T21:00:00:Z","depth":0,"parameterNumber":3,"parameterNumberName":"V-component_of_WINDS"},"data":[0,0,0,0,0,0,0,0,0,0,0,0,0,0,0,0,0,0,0,0,0,0,0,0,0,0,0,0,0,0,0,0,0,0,0,0,0,0,0,0,0,0,0,0,0,0,0,0,0,0,0,0,0,0,0,0,0,0,2.2066,2.2067,0,2.2179,2.218,2.2181,2.2135,2.2132,2.2129,2.2127,2.2242,2.2247,2.2252,0,0,0,0,0,0,0,0,0,0,0,0,0,2.1809,2.1814,2.2066,2.2067,2.2069,2.2178,2.218,2.2181,2.2135,2.2132,2.2129,2.2126,2.224,2.2246,2.2253,0,0,0,0,0,0,0,0,0,0,0,0,0,2.1921,2.1815,2.2066,2.2059,2.206,2.2178,2.218,2.2182,2.2136,2.2132,2.2128,2.2124,2.2238,2.2246,2.2254,2.2385,0,0,2.2279,2.2283,0,0,0,0,0,0,0,0,2.1915,2.193,2.2059,2.206,2.2061,2.2139,2.2131,2.225,2.2137,2.2107,2.2127,2.2122,2.2211,2.2221,2.2251,2.2391,2.2396,2.228,2.2285,2.2289,2.2291,0,0,0,0,0,0,0,2.1907,2.1925,2.211,2.2061,2.2062,2.2049,2.2061,2.2153,2.218,2.2109,2.2106,2.212,2.221,2.2243,2.2253,2.2397,2.228,2.2287,2.2292,2.2296,2.2647,2.2651,0,0,0,0,0,0,2.1899,2.1919,2.2107,2.2114,2.1976,2.2057,2.207,2.2118,2.2179,2.2184,2.2123,2.2118,2.2231,2.2243,2.2257,2.2412,2.2289,2.2296,2.2301,2.2643,2.2648,2.2653,0,0,0,0,0,0,2.1894,2.1916,2.2102,2.2016,2.2038,2.2066,2.212,2.2122,2.2154,2.2189,2.2194,2.2152,2.2228,2.2245,2.2353,2.2416,2.23,2.2308,2.2638,2.2644,2.265,2.2726,0,0,0,0,0,0,2.1887,2.1915,2.1966,2.2017,2.2043,2.2198,2.2124,2.2127,2.2169,2.2162,2.2217,2.2223,2.2226,2.2341,2.2361,2.2425,2.2314,2.2632,2.2641,2.2648,2.2718,2.2734,2.2748,0,0,0,0,0,2.1878,2.1983,2.1969,2.1992,2.2108,2.2202,2.2216,2.2218,2.2174,2.2225,2.2247,2.2221,2.2406,2.2352,2.2375,2.2442,2.2628,2.2638,2.2648,2.2711,2.2731,2.2748,0,0,0,0,0,0,2.1939,2.199,2.1974,2.21,2.2147,2.2194,2.2258,2.224,2.23,2.2291,2.2291,2.2304,2.2414,2.2439,2.2379,2.2571,2.251,2.2525,2.2551,2.257,2.2585,2.2576,2.2321,0,0,0,0,0,2.1967,2.204,2.208,2.2187,2.2211,2.2231,2.2272,2.2269,2.2317,2.2337,2.2367,2.2414,2.2482,2.2528,2.2593,2.2721,2.2731,2.2779,2.2794,2.2806,2.2818,2.2885,2.2906,2.2685,2.2685,2.2685,0,0,2.2027,2.2063,2.2109,2.22,2.2236,2.231,2.2248,2.2329,2.2383,2.2349,2.2452,2.2476,2.2528,2.2646,2.27,2.267,2.2882,2.2818,2.2828,2.2834,2.2897,2.2918,2.2937,2.2691,2.269,2.2689,0,0,2.2171,2.2208,2.2299,2.2336,2.239,2.2402,2.2424,2.2474,2.2487,2.2591,2.2566,2.263,2.2748,2.2786,2.2821,2.2977,2.2954,2.2998,2.3077,2.3142,2.3159,2.3174,2.3228,2.3247,2.301,2.301,2.3011,0,2.2238,2.2349,2.2349,2.2431,2.2471,2.2443,2.2534,2.257,2.2643,2.2671,2.2636,2.2782,2.2816,2.2941,2.2979,2.3009,2.3032,2.2991,2.3157,2.3172,2.3186,2.3237,2.3258,2.3015,2.3015,2.3014,2.3014,0,2.2426,2.2503,2.2571,2.2641,2.2689,2.2776,2.2787,2.2835,2.2827,2.2842,2.2946,2.2985,2.3056,2.3086,2.308,2.3209,2.3189,2.3156,2.3095,2.3212,2.326,2.328,2.3022,2.3021,2.3019,2.3018,0,0,2.2614,2.2682,2.2707,2.2737,2.2794,2.2853,2.2937,2.3007,2.3046,2.3097,2.3167,2.3266,2.3235,2.3275,2.3272,2.333,2.3447,2.3289,2.329,2.3316,2.3589,2.3612,2.3635,2.3433,2.3436,2.3439,2.3584,0,2.2762,2.2911,2.2912,2.3048,2.3117,2.309,2.3163,2.3205,2.3221,2.3281,2.3298,2.3368,2.3323,2.3346,2.3401,2.3421,2.3502,2.3411,2.3495,2.3498,2.3482,2.366,2.3686,2.3821,2.3603,2.3606,2.3608,0,2.2955,2.3011,2.3154,2.3198,2.3227,2.3293,2.3355,2.3414,2.346,2.3467,2.3509,2.3497,2.3581,2.3518,2.3632,2.357,2.3604,2.3619,2.3624,2.3631,2.356,2.3671,2.3864,2.3884,2.3638,2.3636,2.3633,0,2.3075,2.3186,2.3285,2.3312,2.3367,2.3414,2.3438,2.3481,2.3521,2.3575,2.3601,2.3664,2.3698,2.3746,2.3751,2.3704,2.3865,2.3802,2.3871,2.3871,2.3906,2.3904,2.4106,2.3931,2.393,2.393,2.393,0,2.3239,2.3327,2.3339,2.34,2.3497,2.3497,2.3592,2.3613,2.365,2.3713,2.3694,2.3753,2.3756,2.3817,2.3821,2.3913,2.3929,2.3936,2.3936,2.3937,2.3936,2.3959,2.3949,2.3935,2.3934,2.3933,2.3932,0,2.3389,2.3402,2.3507,2.355,2.3562,2.3632,2.3668,2.3725,2.3737,2.3817,2.3836,2.3856,2.3926,2.3935,2.4017,2.4019,2.413,2.4121,2.4114,2.4113,2.418,2.4173,2.4404,2.4433,2.424,2.4242,2.4243,0,2.3492,2.3559,2.3608,2.3649,2.3676,2.3743,2.3784,2.3785,2.3828,2.3884,2.3934,2.4001,2.4056,2.4168,2.4189,2.4251,2.4242,2.4318,2.4251,2.4249,2.424,2.4236,2.4241,2.4331,2.4333,2.4335,2.4336,0,2.3674,2.3676,2.3736,2.3797,2.3846,2.3895,2.3941,2.3975,2.3982,2.4031,2.4102,2.4143,2.4226,2.4293,2.4353,2.4377,2.4357,2.4357,2.4376,2.4377,2.437,2.4373,2.4148,2.4352,2.435,2.4349,2.4348,2.4347,2.3802,2.3859,2.3902,2.3969,2.4003,2.4046,2.41,2.412,2.4179,2.4246,2.4243,2.4321,2.4362,2.4441,2.4469,2.4528,2.4503,2.4531,2.4538,2.4544,2.455,2.4362,2.4539,2.4539,2.4539,2.4538,2.4538,0,2.3981,2.4006,2.4068,2.4132,2.4183,2.416,2.4209,2.4253,2.4322,2.4363,2.4416,2.4496,2.4559,2.4585,2.4646,2.4689,2.4681,2.4705,2.4701,2.4706,2.457,2.4547,2.471,2.471,2.471,2.471,2.471,2.471,2.408,2.4174,2.4181,2.4291,2.4316,2.4392,2.4421,2.4459,2.4492,2.4582,2.4635,2.4651,2.4684,2.4748,2.4805,2.481,2.4833,2.486,2.4862,2.4734,2.4717,2.47,2.4678,2.4866,2.4866,2.4993,2.4994,2.4995]}]]